User: anonymous
Location: Pine Mountain Observatory
(43.7910°N, 120.9377°W)
Time: 12:58:25
(UTC-07:00)
Language:

Cosmos 1076 Rocket - Orbit

View from above orbital plane
View from above orbital plane
View from above satellite
View from above satellite

Ground track
Ground track

The orbit data is extracted from the following two-line orbital elements,

1 11267U 79011B   14203.81959442  .00000136  00000-0  12029-4 0  4686
2 11267 082.5275 150.2003 0018251 150.9520 268.8066 14.88157462917726
Epoch (UTC): 22 July 2014 19:40:12
Eccentricity: 0.0018251
inclination: 82.5275°
perigee height: 591 km
apogee height: 616 km
right ascension of ascending node: 150.2003°
argument of perigee: 150.9520°
revolutions per day: 14.88157462
mean anomaly at epoch: 268.8066°
orbit number at epoch: 91772

The dashed part of the orbit path shows where the satellite is in the earth's shadow,  

DLR